Theta_e
332 332 332 331 331 331 330 331 331 332 331 331 331 331 331 331 331 331 331 331 330 331 329 330 330 329 328 328 328 328 329 329 329 329 329 329 329 324 318 319 320 322 324 326 329 330 331 331 332 332 333 333 333 333 333 333 333 333 333 334 334 333 333 331 331 331 331 331 332 333 332 332 331 331 331 332 332 333 332 330 330 333 333 333 330
332 332 331 331 331 331 330 330 330 331 331 331 331 330 330 330 331 331 330 330 330 330 329 329 329 329 328 327 327 327 329 328 329 328 328 328 328 327 318 318 319 321 322 324 326 328 328 329 331 331 332 332 331 332 331 332 332 332 333 333 332 333 333 331 331 331 330 331 332 332 330 330 329 329 330 330 330 330 330 331 331 332 332 331 330
333 332 331 331 331 331 331 331 330 331 331 331 331 331 331 330 330 329 329 329 328 329 328 328 328 327 327 328 328 329 329 329 329 328 327 328 327 327 327 318 319 319 320 322 324 325 326 328 329 329 330 332 331 331 331 331 331 332 332 333 333 332 331 331 331 330 330 330 329 329 329 329 329 329 329 329 329 329 329 329 329 329 330 330 331
334 333 332 331 331 331 331 331 331 331 332 331 331 332 331 331 331 331 330 329 328 327 328 327 327 327 328 328 329 329 328 329 328 328 327 327 326 326 326 325 318 318 318 319 322 322 324 326 326 327 329 329 330 330 331 332 332 331 331 331 332 331 329 330 329 330 330 329 328 328 328 328 327 328 328 328 328 328 328 328 328 329 329 329 329
334 334 332 332 331 331 331 331 331 332 331 332 332 332 330 330 329 331 329 329 328 327 328 327 326 327 328 329 329 329 329 329 328 328 326 326 325 325 326 326 325 318 317 317 319 320 322 324 324 324 325 325 326 327 328 329 330 329 329 329 330 330 329 328 328 329 328 327 327 324 324 324 324 324 323 323 324 325 325 325 326 326 327 328 328
335 334 333 332 332 331 331 331 332 332 331 331 330 330 329 329 329 328 325 327 326 326 325 326 326 327 328 329 329 329 329 328 327 326 326 324 324 325 325 324 323 323 323 317 317 317 319 322 322 322 322 322 322 323 325 325 326 326 326 326 329 330 327 324 324 323 324 324 324 324 324 324 323 322 323 323 324 323 323 323 323 323 324 323 323
335 334 332 332 331 330 329 330 331 332 330 330 330 330 330 329 327 326 327 326 325 326 325 326 326 327 328 328 328 329 329 328 327 325 323 324 324 325 324 322 322 322 321 320 314 316 317 318 320 320 319 319 321 323 323 324 325 325 326 326 325 324 324 322 322 323 323 322 321 321 320 320 321 322 322 322 322 322 321 321 321 322 323 323 323
334 334 333 332 330 330 330 331 332 331 330 329 330 329 328 329 329 328 325 325 325 325 326 326 326 326 328 328 328 328 328 327 326 324 323 324 324 324 323 322 321 319 317 316 315 314 315 315 317 317 317 317 319 321 321 322 322 324 324 323 322 322 321 321 321 322 322 320 320 320 320 320 320 319 318 318 319 319 320 320 320 321 321 321 321
334 333 333 332 331 331 330 332 333 331 329 330 329 330 329 329 328 328 328 325 325 325 326 325 325 325 326 327 328 328 327 326 324 322 324 324 323 322 321 322 320 313 315 314 314 312 312 314 315 315 314 314 316 318 319 320 320 323 322 320 320 320 321 319 320 321 320 320 320 319 318 316 316 316 316 316 316 316 316 317 317 317 318 319 320
334 333 333 333 333 331 332 332 331 330 328 330 329 330 330 328 327 328 328 326 325 325 325 324 325 325 325 326 326 326 325 325 323 319 322 322 320 319 320 317 316 315 314 314 312 311 312 311 312 312 311 312 314 316 318 318 318 321 320 318 319 319 319 319 319 319 318 318 318 316 315 315 315 316 316 317 317 317 317 317 317 317 317 318 318
335 333 333 332 332 332 332 332 331 329 328 329 329 328 327 329 329 328 328 328 326 325 324 325 324 324 324 323 325 325 325 323 323 321 321 321 318 319 319 316 313 314 312 312 309 311 311 312 311 312 312 311 313 314 315 316 316 317 318 317 317 317 318 319 319 318 318 317 315 314 314 314 315 315 315 315 316 317 317 317 318 318 318 318 319
334 334 333 332 331 331 331 333 331 329 328 328 329 328 328 328 328 328 327 327 323 323 325 325 324 323 322 322 324 322 323 322 322 320 320 321 318 315 313 313 311 311 310 310 310 310 310 310 309 310 310 310 311 312 312 312 312 314 315 316 315 317 319 319 318 317 315 313 313 314 314 315 315 316 316 316 316 316 316 316 317 317 317 318 318
334 334 333 329 331 331 332 332 332 330 329 329 330 330 329 329 327 325 324 324 323 323 324 324 322 320 321 321 320 320 321 322 321 318 320 321 317 312 312 310 310 309 308 308 309 309 309 309 309 309 309 310 308 307 310 311 310 312 313 314 316 318 318 317 316 315 313 312 313 314 314 314 315 315 315 316 316 316 316 317 318 318 318 319 318
333 335 333 332 331 331 331 331 332 330 330 331 330 325 327 326 325 323 322 322 322 323 323 322 319 315 314 315 316 318 319 320 319 315 320 320 315 313 312 309 309 308 307 307 307 307 307 308 309 309 309 308 307 306 307 306 306 310 312 312 313 315 315 314 314 312 312 312 312 313 313 313 314 313 315 315 316 316 316 317 317 317 318 318 318
334 334 333 333 332 332 331 331 332 331 329 328 328 327 327 325 323 323 320 322 321 321 321 321 317 317 317 314 312 312 316 318 319 315 316 316 312 311 311 309 309 309 307 305 304 305 307 307 308 309 308 308 306 305 306 304 305 306 309 310 311 312 312 312 311 311 311 311 312 313 313 313 313 314 314 315 315 316 316 316 316 316 316 317 316
334 334 333 334 333 331 331 331 331 331 329 329 328 327 327 325 323 323 323 320 320 319 320 321 318 315 311 309 310 310 307 310 308 312 312 312 310 309 309 308 306 304 304 303 304 305 306 307 307 307 308 307 307 306 306 306 305 305 304 303 303 307 308 310 311 312 311 312 313 313 313 313 313 314 315 315 315 314 314 315 316 316 315 314 316
334 334 333 333 333 332 332 331 331 331 330 329 328 327 327 326 325 324 323 322 320 320 318 319 318 318 314 312 310 308 303 306 306 309 309 306 309 311 310 307 302 301 302 303 304 305 305 306 306 307 307 306 305 305 306 307 306 306 303 299 301 303 305 308 310 311 312 311 312 312 311 311 312 312 313 314 314 314 314 315 315 314 314 315 315
334 335 334 333 332 332 332 331 331 330 329 328 327 325 324 323 324 323 322 323 321 319 315 316 318 317 317 315 313 309 306 305 306 296 304 305 304 304 305 304 301 301 302 302 302 303 304 304 305 305 306 306 306 307 307 307 306 305 301 299 302 302 303 305 307 309 310 310 310 311 311 311 311 311 311 312 312 312 313 313 313 313 313 313 313
334 333 333 333 332 332 331 330 329 328 325 324 323 323 323 323 323 323 322 321 319 316 315 315 315 315 315 314 313 313 312 307 302 301 295 300 303 300 301 303 300 300 300 300 300 301 303 303 304 304 303 303 303 304 305 305 304 301 299 300 302 300 301 301 303 305 307 308 309 309 310 310 311 310 310 310 310 310 311 311 312 312 312 312 312
333 333 332 332 331 330 329 327 326 325 323 324 324 323 322 321 322 322 321 320 318 316 315 315 312 312 312 311 310 310 310 309 308 296 293 292 296 302 304 302 300 299 299 299 299 300 301 302 303 302 301 301 302 304 304 304 302 299 297 299 300 299 299 300 300 300 302 305 306 307 308 309 309 309 310 309 308 309 309 310 310 311 311 311 311
331 331 330 330 328 329 328 326 325 323 323 323 322 323 322 321 320 320 319 318 316 315 314 313 314 312 308 307 307 306 306 305 303 298 296 297 296 296 296 299 300 301 299 299 299 300 300 301 301 301 300 300 302 304 303 302 299 297 296 297 298 298 299 300 299 299 299 299 300 302 305 306 308 308 308 309 308 308 308 309 309 309 310 310 310
327 329 329 329 329 329 327 326 326 322 319 321 321 321 320 318 318 318 318 316 315 314 313 313 312 310 309 306 304 305 304 303 302 297 300 298 292 293 295 295 293 295 299 298 297 298 300 301 300 300 299 300 303 302 302 299 296 296 294 294 295 297 298 299 298 298 298 298 298 298 300 302 304 306 307 308 308 308 307 308 308 308 309 309 309
323 324 326 326 326 326 326 326 325 322 321 321 320 319 316 315 312 313 314 314 312 310 309 309 307 306 305 305 304 304 301 298 299 298 297 295 294 293 294 295 293 293 297 298 297 298 299 300 300 299 299 301 301 300 299 296 294 294 293 293 294 295 295 296 296 297 297 297 298 298 299 299 300 302 305 306 307 307 308 308 308 308 308 308 308
321 321 318 319 320 320 320 320 319 318 318 319 317 316 316 315 312 311 311 310 309 309 308 306 305 304 304 304 303 303 301 300 299 299 298 295 294 293 293 293 294 296 297 297 298 297 297 298 298 297 299 300 299 298 296 295 293 293 292 292 292 293 294 295 297 296 296 296 296 297 298 298 298 299 301 303 304 306 307 308 308 307 308 308 307
316 317 317 314 313 313 314 314 314 316 316 316 315 315 314 313 310 309 308 309 309 308 305 304 304 302 301 301 301 301 300 299 300 298 299 297 296 292 293 294 290 292 295 295 293 295 297 296 295 296 299 299 298 296 294 293 292 292 292 291 291 292 293 293 295 295 296 296 296 296 296 296 298 298 299 300 301 303 305 307 307 308 307 307 307
316 318 317 314 313 315 315 314 314 313 314 315 314 312 311 310 309 308 307 304 304 304 303 302 302 302 301 299 299 298 297 299 298 298 296 295 292 291 291 292 293 292 294 293 294 292 294 296 295 295 298 297 295 294 293 292 292 291 291 290 291 292 292 292 293 294 295 295 296 295 295 296 296 297 298 300 300 301 301 303 305 306 307 307 307
317 318 315 314 314 313 313 312 311 312 313 311 311 310 310 308 306 305 302 302 302 301 300 300 300 300 299 297 296 296 296 296 297 296 296 295 294 292 291 288 289 291 291 292 293 293 292 293 295 294 297 295 294 292 292 291 291 292 290 290 291 291 291 291 292 294 295 295 295 295 295 295 296 297 298 298 300 299 300 301 302 303 305 305 305
318 315 312 311 309 308 309 312 312 311 311 310 309 307 305 303 302 301 300 300 299 299 298 299 298 298 297 296 295 294 295 295 295 294 294 295 295 294 293 290 288 285 289 289 290 291 293 291 293 296 295 293 292 292 291 291 292 291 290 290 291 291 291 291 293 294 294 293 293 294 294 295 295 297 297 296 297 297 298 300 299 301 300 301 301
314 312 309 308 306 307 308 310 313 312 308 308 308 306 304 302 301 299 298 298 297 297 296 296 296 296 295 296 294 294 293 294 293 293 293 294 294 293 294 290 289 288 285 285 287 289 291 293 289 292 295 292 291 292 291 291 291 290 290 290 291 291 291 291 292 293 292 292 293 294 294 294 295 295 296 296 296 296 297 297 296 297 298 298 298
310 309 308 305 305 305 308 310 312 307 307 306 305 303 302 300 299 297 297 297 296 295 296 295 295 294 294 294 293 292 293 293 292 292 293 292 291 292 291 291 291 288 287 285 286 290 290 292 291 290 292 291 291 291 291 291 291 290 290 290 290 290 290 290 291 291 291 292 293 293 293 294 295 295 295 294 295 296 297 297 297 297 298 296 298
306 304 305 303 303 304 304 304 304 305 305 303 302 301 299 297 296 295 295 295 294 293 294 294 293 293 292 292 292 291 292 291 291 291 291 292 291 291 291 292 290 291 288 288 285 289 291 289 290 291 290 290 290 290 291 291 291 290 290 290 290 289 288 289 289 290 291 292 292 293 294 295 295 295 294 294 294 295 296 296 296 296 296 298 298
304 304 303 301 302 302 302 303 303 302 301 300 299 298 297 296 294 294 294 294 293 292 292 292 293 293 292 291 291 290 291 291 290 290 290 290 290 290 290 290 290 289 288 287 286 286 290 289 289 290 290 289 290 289 290 290 290 289 290 289 289 288 289 289 289 289 290 291 292 292 293 294 294 294 294 293 294 295 295 295 296 296 296 297 297
304 302 302 301 301 300 301 301 300 299 298 297 297 296 296 295 295 294 293 293 292 291 291 291 292 292 291 290 290 289 290 290 289 289 289 289 289 289 289 289 288 289 287 286 285 285 288 291 289 289 290 290 288 290 288 288 289 289 289 289 289 288 288 288 288 288 289 290 291 292 292 292 292 292 292 292 292 293 293 294 294 294 295 295 295
300 300 300 300 300 299 300 300 299 298 297 296 295 295 294 294 293 293 293 293 292 291 291 290 291 291 290 289 288 288 289 289 289 288 289 288 289 288 288 288 287 287 288 286 285 285 284 288 287 289 289 289 287 290 288 287 287 288 288 288 288 288 288 288 288 288 288 289 291 291 292 292 291 291 291 290 291 291 293 294 293 294 294 294 294
298 298 298 298 299 299 299 298 298 296 296 295 295 295 294 293 292 292 293 292 291 291 290 290 289 290 290 289 288 288 288 288 288 288 288 288 288 288 287 288 287 287 287 286 285 284 284 284 287 286 287 287 287 287 288 288 288 288 286 286 287 287 288 287 287 288 288 289 291 291 291 291 290 290 290 290 291 291 292 292 293 293 294 294 294
297 295 296 296 297 297 297 296 296 295 294 293 293 293 293 292 292 291 292 292 292 291 291 289 289 290 289 288 287 288 288 287 287 287 287 288 287 287 287 287 287 286 286 285 285 284 283 283 285 285 286 285 286 287 288 288 287 286 286 286 287 286 287 287 286 286 287 290 290 289 289 289 289 289 289 290 290 290 291 292 292 292 292 294 294
295 294 295 295 296 297 296 295 294 293 293 292 292 292 292 292 292 291 291 291 291 290 290 289 288 289 288 287 287 287 287 287 286 286 286 286 287 287 286 286 286 285 285 285 285 285 284 283 284 285 286 286 286 287 287 285 285 285 286 285 285 285 285 286 286 287 288 288 288 287 287 287 287 288 288 289 289 290 290 290 291 291 291 294 293
295 293 294 294 295 296 295 294 293 292 291 291 291 291 291 291 291 291 291 290 289 289 288 288 288 288 287 287 286 286 287 287 286 286 286 285 286 286 285 285 285 285 285 285 285 284 284 283 283 283 285 284 284 285 286 285 283 282 283 284 284 284 283 283 284 286 286 286 285 285 285 285 286 286 287 288 289 288 289 289 290 289 290 292 293
295 292 293 294 294 294 293 292 291 291 290 290 290 290 290 290 290 290 289 289 288 288 287 287 287 287 287 286 286 286 286 286 286 286 286 285 285 285 285 284 284 284 284 284 284 283 283 283 283 284 283 284 284 282 284 285 284 283 281 280 279 282 283 283 282 284 285 284 285 285 284 284 285 284 285 286 287 287 287 288 288 288 290 292 293
293 293 292 292 292 292 292 291 290 290 289 289 290 289 290 290 289 289 289 288 287 287 286 286 286 286 286 285 285 285 286 286 286 286 286 285 285 284 285 284 284 284 284 284 283 283 282 282 282 281 282 282 282 284 284 283 282 282 282 280 278 279 280 282 283 282 282 282 281 282 283 284 284 284 285 285 285 286 286 286 286 286 289 292 292
292 291 291 291 290 290 289 289 289 289 289 289 290 289 289 289 289 289 288 287 287 286 285 285 285 285 285 285 285 285 284 282 282 283 283 283 285 284 284 284 284 283 283 283 283 282 281 281 280 282 281 280 281 281 280 280 279 279 280 280 279 280 280 280 281 282 282 281 280 280 280 281 280 281 282 281 282 283 283 284 285 286 290 292 292
291 290 289 289 289 288 287 287 288 289 289 289 287 288 289 289 289 289 288 288 287 286 285 284 284 284 284 284 283 281 281 281 281 281 282 282 282 283 283 284 283 282 281 281 281 281 280 279 279 279 278 279 280 280 279 280 281 280 279 279 278 279 279 279 279 280 281 280 279 278 279 281 280 280 281 280 281 282 282 283 284 287 290 292 292
288 288 288 288 287 287 287 287 287 288 288 287 287 289 289 289 288 288 287 287 287 286 285 284 283 282 283 283 282 281 281 281 281 280 281 281 282 282 282 282 283 282 281 280 280 280 279 279 279 279 279 278 279 280 280 280 280 279 278 279 278 278 277 275 274 277 282 280 278 277 277 280 280 279 279 280 280 280 281 282 286 288 290 291 291
286 287 287 287 286 287 287 287 287 287 287 287 288 288 288 288 288 288 287 287 286 285 284 284 283 283 282 282 282 282 282 282 282 281 281 281 282 282 282 282 282 281 282 281 280 279 279 278 278 278 279 278 279 280 279 279 278 278 279 279 278 277 275 275 275 274 278 280 277 276 276 279 280 279 278 279 280 280 281 284 286 288 290 290 290
286 286 286 286 286 286 286 287 287 288 287 288 289 288 288 287 287 287 287 286 285 284 284 283 283 282 282 282 281 281 281 279 280 281 281 282 282 282 282 281 281 281 281 281 282 281 281 279 278 278 279 279 278 279 280 279 279 277 278 277 277 276 276 275 275 275 277 279 277 275 274 277 279 277 277 279 280 280 280 283 286 287 289 290 289
285 285 285 285 285 285 286 287 287 288 288 288 289 288 287 287 286 286 286 285 284 283 283 283 282 282 282 282 281 280 280 280 280 281 282 282 283 283 282 281 281 281 281 281 281 281 281 280 280 278 280 281 279 279 280 280 279 277 277 276 276 275 275 275 276 276 278 279 276 274 273 276 278 276 276 278 280 280 280 282 285 286 288 289 289
285 285 284 284 285 285 286 287 288 288 288 288 288 287 287 287 286 285 285 284 283 283 282 282 282 282 282 281 281 280 279 279 280 281 282 282 282 281 280 280 280 281 281 281 281 281 281 282 281 281 281 281 281 280 280 281 280 279 278 277 276 276 276 277 277 277 277 278 277 275 271 275 277 275 276 278 279 279 280 281 283 285 286 287 288
285 285 285 285 285 285 286 287 287 288 288 288 287 287 287 286 285 284 284 283 282 282 281 281 281 281 281 280 279 279 279 279 280 281 282 283 281 280 278 279 279 280 280 280 281 282 282 282 282 281 281 281 281 281 281 280 279 279 278 278 277 276 274 273 273 274 274 277 277 275 272 273 276 274 275 278 278 278 279 278 280 283 284 285 286
284 284 284 284 284 285 285 286 286 287 287 287 287 286 286 286 284 283 283 282 282 281 281 281 280 280 280 280 279 278 279 279 280 282 282 281 280 279 278 278 278 278 278 280 281 282 282 282 281 281 281 281 281 282 281 281 279 279 277 275 274 274 272 270 271 272 272 274 276 276 273 272 275 274 274 276 276 278 277 277 277 280 282 283 284
283 284 283 283 284 285 285 285 286 286 286 286 286 286 286 285 283 283 282 282 281 280 280 280 280 279 279 279 279 279 279 279 281 282 281 281 279 279 278 277 276 276 278 280 280 280 281 280 279 279 279 280 280 280 279 279 279 278 276 273 273 273 271 271 269 270 271 273 276 277 272 272 274 275 273 275 276 280 277 277 276 276 278 279 282
283 283 282 282 282 284 285 285 285 286 286 285 286 286 285 284 283 283 282 282 280 279 279 278 279 279 278 279 279 279 280 281 281 281 281 280 280 279 278 277 276 276 278 279 278 277 277 276 276 277 278 278 278 277 277 278 278 278 277 275 274 272 270 270 270 270 269 272 276 276 272 272 272 274 273 271 272 276 279 277 276 275 275 275 276
Wind_Speed
2 2 1 1 1 1 1 0 0 0 1 1 1 1 0 1 1 2 3 3 3 3 4 4 4 5 5 5 5 6 6 6 6 5 5 5 4 5 5 5 8 9 10 11 12 13 13 14 15 15 15 15 15 15 16 16 17 17 17 17 17 18 17 17 17 18 18 19 18 19 19 19 19 19 20 20 19 19 19 19 21 20 21 23 23
2 2 2 2 1 2 2 1 1 0 1 1 0 1 1 1 2 3 4 4 5 4 4 5 6 6 6 6 5 6 6 5 5 5 4 4 4 4 4 4 6 9 10 11 11 12 13 14 14 15 15 15 15 15 16 16 16 17 18 17 17 18 17 18 18 19 18 19 18 18 18 19 19 20 20 21 21 21 22 23 23 22 21 22 22
2 2 2 2 2 2 2 1 2 1 1 1 0 1 1 2 3 4 5 5 6 5 5 6 5 5 5 6 6 6 6 5 4 4 4 4 4 4 4 2 4 6 8 9 10 11 13 13 14 15 15 15 16 16 16 16 16 17 18 19 20 19 19 19 20 20 19 19 19 19 20 20 20 20 21 21 22 23 23 23 23 24 24 24 24
3 2 3 3 2 2 1 1 1 1 1 1 1 1 2 3 2 2 3 5 6 6 5 5 5 4 5 6 5 5 5 4 4 4 4 4 3 3 3 4 2 2 4 7 9 10 11 13 14 14 15 15 15 15 15 16 16 17 18 19 19 19 18 19 20 21 21 20 21 22 22 21 21 21 21 22 22 23 23 23 23 23 24 24 24
4 4 3 3 2 2 2 1 1 1 1 1 2 2 3 3 4 2 3 4 5 5 4 4 4 5 5 5 4 4 4 4 4 4 4 3 3 4 4 4 4 2 3 3 7 10 12 13 14 14 15 15 14 15 15 16 17 17 17 17 17 18 19 19 20 20 20 20 21 21 22 22 22 22 23 23 23 23 24 24 24 24 25 24 25
4 4 4 3 3 2 2 2 2 1 2 2 3 3 4 4 4 5 4 5 5 5 4 4 5 5 5 4 4 4 5 4 5 4 3 4 3 4 4 4 5 5 6 2 5 8 11 12 13 13 14 15 15 15 15 15 15 15 16 16 18 18 19 18 18 19 19 20 20 21 21 21 22 22 23 23 23 23 24 25 25 25 26 26 26
5 4 5 4 4 4 4 4 3 3 4 4 4 3 4 4 4 5 5 4 3 3 3 5 5 6 6 4 5 5 5 4 4 3 4 4 3 4 4 5 5 6 6 5 4 8 9 11 12 12 14 15 15 15 16 16 16 16 16 17 17 18 18 18 19 19 20 20 21 21 21 22 22 22 22 23 24 24 25 25 25 25 25 26 26
5 4 4 5 5 5 4 3 3 3 4 2 2 3 3 3 3 4 4 3 3 3 4 4 5 6 6 5 5 5 5 4 3 3 4 4 4 4 4 5 6 5 6 6 6 5 7 7 9 10 12 14 14 15 16 16 17 16 17 17 18 18 19 19 20 20 20 20 21 21 21 21 22 23 23 24 24 25 25 26 26 26 27 27 27
5 5 4 4 4 5 4 4 3 3 3 2 2 2 2 3 3 2 3 4 4 4 5 4 5 6 6 5 5 4 4 3 3 3 3 4 4 4 4 5 5 6 6 6 6 6 5 4 5 5 8 12 13 15 15 17 17 17 17 18 19 19 19 19 20 20 20 20 20 21 22 22 23 24 24 25 25 25 25 26 26 27 27 28 28
5 5 5 5 5 5 5 5 4 4 3 3 3 3 3 3 4 3 4 4 4 5 5 5 5 6 6 5 5 4 3 2 2 2 4 4 4 5 4 5 5 6 6 6 6 6 6 7 6 4 7 9 12 14 15 16 18 18 18 18 19 19 20 20 20 20 20 20 21 22 23 23 24 24 24 24 25 25 25 26 26 28 28 29 28
6 6 5 5 5 6 6 6 5 4 4 4 3 1 2 3 5 4 2 3 4 3 2 4 5 5 6 6 5 3 1 2 1 3 3 3 4 3 4 5 6 6 7 6 6 6 7 7 6 6 6 9 11 14 14 15 16 18 18 19 19 20 20 20 20 20 20 20 22 23 24 24 24 24 24 24 25 25 25 26 27 27 28 28 29
7 7 6 6 6 6 6 6 6 6 6 6 5 4 5 5 5 4 5 3 1 2 3 4 5 6 5 4 2 2 2 1 1 3 3 2 4 4 5 5 6 7 7 6 5 6 6 6 6 6 7 8 8 9 11 13 14 17 18 19 19 19 19 20 20 21 21 22 24 24 23 23 23 23 24 24 25 26 26 27 28 28 30 30 32
7 7 7 6 6 5 6 7 7 6 6 6 5 5 3 4 3 2 3 3 1 1 1 3 4 5 4 2 0 2 2 2 2 4 2 2 4 4 4 5 6 7 7 6 5 6 6 6 6 6 6 6 7 9 9 8 12 16 17 18 18 18 19 20 21 22 23 24 24 24 23 23 24 24 25 25 26 26 27 27 28 29 30 30 32
8 8 7 7 7 7 7 6 6 5 4 3 5 4 3 3 2 2 2 3 2 1 2 4 3 4 5 2 1 3 2 3 1 4 2 2 3 4 4 5 6 6 6 5 5 5 6 5 5 6 6 6 6 7 7 8 10 13 14 16 17 19 20 22 23 24 24 24 24 24 24 24 24 25 25 26 27 27 28 29 29 30 30 31 30
9 8 7 7 8 7 7 6 6 4 4 6 5 5 5 5 5 4 3 2 2 1 2 3 4 4 3 4 1 2 4 3 2 1 2 2 2 3 4 5 6 6 6 6 6 6 5 5 5 5 6 6 6 6 6 7 8 7 10 15 18 19 22 23 24 25 24 24 24 24 24 25 26 26 27 28 29 29 30 30 31 31 32 31 32
8 7 5 5 6 7 7 8 9 6 5 6 6 5 5 4 5 5 4 3 3 2 0 2 3 4 1 1 1 2 2 4 4 1 1 1 2 3 3 5 7 7 5 6 6 5 4 4 5 5 5 5 5 6 6 6 8 8 7 12 17 21 23 24 24 24 24 25 25 25 26 26 27 27 28 29 30 31 32 31 31 32 32 34 33
10 10 9 8 7 7 8 9 8 7 6 6 5 5 5 5 6 6 5 3 3 1 1 2 2 3 4 2 2 2 2 3 6 3 1 2 2 2 3 5 7 7 5 6 6 5 5 5 5 5 5 5 5 5 6 6 7 8 9 12 19 22 24 24 24 25 25 26 26 27 27 27 28 29 29 30 31 32 32 32 32 33 33 33 33
9 11 10 9 9 8 8 8 7 6 6 5 4 5 6 6 5 4 3 2 4 2 1 2 1 2 3 3 4 3 3 3 3 2 2 2 2 3 4 5 7 6 5 5 7 5 4 5 6 6 5 5 6 6 6 7 8 7 8 13 23 23 24 24 24 25 26 26 27 27 28 28 29 29 30 31 33 32 33 33 33 34 34 35 35
10 10 9 9 8 7 7 7 6 5 4 5 5 6 6 5 4 3 2 2 1 3 4 3 2 1 1 2 2 2 2 3 2 2 3 1 2 4 5 6 8 7 6 6 7 7 5 5 6 7 7 7 7 7 7 7 9 10 13 22 24 24 25 25 25 25 26 27 27 28 28 29 30 30 31 32 33 33 33 34 34 34 35 35 37
9 9 8 8 7 7 6 5 5 5 6 5 6 6 5 4 4 3 3 2 2 4 4 4 4 3 1 1 1 1 1 1 2 2 2 4 4 0 1 4 5 4 6 8 9 8 8 7 7 8 8 8 8 8 8 8 8 10 11 23 23 23 24 24 23 24 25 26 27 27 28 29 29 31 31 32 33 33 33 33 34 35 35 36 36
8 7 6 7 7 7 8 8 7 6 4 5 5 6 6 5 5 3 2 2 3 3 4 4 3 3 4 2 2 3 3 2 2 0 2 3 4 3 5 5 3 1 2 2 6 8 7 6 6 6 7 6 7 7 6 7 7 8 11 20 21 22 22 22 22 23 23 24 25 26 27 28 29 30 31 32 32 32 33 33 34 35 36 36 36
6 6 6 7 8 9 9 9 8 7 4 4 4 5 4 3 2 2 3 4 4 5 4 3 2 2 1 3 4 4 4 3 2 2 3 4 3 5 5 6 7 4 2 1 5 7 5 4 4 4 5 5 5 5 5 6 7 8 11 18 19 20 21 21 21 22 23 24 24 25 27 28 29 30 31 32 32 33 33 34 34 35 35 36 37
6 7 6 7 7 7 7 6 6 5 5 5 4 4 3 4 4 4 5 6 6 6 5 5 4 3 2 2 3 2 1 2 2 2 2 2 3 3 4 3 6 7 1 3 4 5 4 3 3 3 4 3 3 4 5 7 9 9 13 15 18 20 19 20 21 22 23 24 25 26 27 28 29 30 31 32 32 33 33 34 34 35 35 36 38
7 6 4 3 3 4 5 5 4 4 4 3 3 4 4 5 5 5 6 6 6 7 6 6 5 4 3 2 2 2 2 2 2 1 1 1 2 4 4 5 4 4 5 5 4 4 3 3 3 4 3 2 2 4 5 7 8 9 10 15 18 19 17 19 21 22 23 24 25 26 27 28 29 30 31 32 33 34 34 35 35 35 36 37 38
7 7 6 6 4 4 5 4 5 5 6 6 6 7 6 6 6 6 6 7 6 6 5 5 5 4 4 3 3 3 3 2 1 1 1 1 1 3 3 2 5 7 4 3 2 3 2 1 4 4 1 1 2 3 6 8 8 9 10 13 18 16 16 18 20 22 24 25 25 25 26 28 29 30 31 32 33 34 36 36 36 37 38 38 39
8 9 8 7 5 5 5 5 5 7 7 7 7 6 6 7 7 7 7 4 5 6 6 6 5 5 4 4 3 3 2 1 1 0 0 1 1 3 4 4 5 6 5 3 2 2 3 2 4 4 1 1 3 6 8 8 9 11 11 14 13 13 16 16 18 22 25 25 25 25 26 27 29 31 32 33 34 35 35 37 38 38 38 39 40
8 7 9 8 5 5 5 6 7 7 8 7 5 6 7 6 6 7 5 4 5 5 6 6 5 5 4 4 4 3 2 1 1 1 0 1 1 1 4 7 6 3 5 5 3 3 1 4 3 3 1 2 4 8 8 9 11 10 11 12 10 13 13 14 18 24 26 26 25 25 27 28 29 31 32 33 35 35 37 37 38 38 39 41 41
7 7 7 7 6 5 5 6 8 7 6 7 7 6 7 6 6 6 6 3 5 6 6 5 5 6 5 5 4 3 2 2 1 1 1 0 0 0 1 2 6 9 7 5 4 5 1 2 4 3 1 3 6 7 9 10 8 11 13 10 9 10 12 15 21 25 23 23 24 26 27 29 31 33 34 34 35 35 36 38 39 40 41 41 42
6 8 9 7 7 6 6 7 8 7 6 6 6 6 6 6 6 7 7 5 6 6 5 5 5 5 5 4 4 4 3 3 2 2 1 1 0 0 0 1 1 4 7 8 7 6 3 0 4 1 0 5 7 7 8 8 8 10 11 10 10 10 11 20 24 22 20 22 25 26 28 30 32 34 34 33 34 35 36 38 39 40 40 40 41
6 6 8 9 8 6 6 8 9 7 7 6 6 6 6 5 6 6 6 6 6 5 4 5 5 5 5 4 4 4 3 3 3 2 1 1 1 1 0 0 1 2 3 6 8 4 6 4 4 5 6 8 7 8 8 8 9 11 11 11 10 10 17 23 20 19 20 24 26 27 30 32 33 33 32 32 33 35 36 38 39 40 41 41 41
7 6 7 7 6 6 6 8 7 7 7 7 7 6 6 7 6 6 6 6 6 6 4 5 4 5 5 5 4 4 4 4 3 3 2 2 1 1 1 1 1 1 2 3 6 2 3 8 5 6 9 10 9 9 8 8 9 10 11 11 11 14 19 15 17 19 20 23 24 27 31 32 32 31 32 33 34 36 37 38 39 40 41 42 43
7 8 8 8 8 6 5 8 7 6 7 6 6 6 6 6 6 6 6 6 6 6 5 4 3 5 5 5 4 4 3 3 3 2 2 2 1 1 1 1 1 1 2 4 6 10 5 7 7 7 9 10 11 10 10 8 9 11 12 11 12 15 11 12 14 18 20 24 26 28 30 31 31 31 32 34 35 37 37 37 38 39 39 41 42
11 8 8 8 8 7 8 8 8 7 8 7 6 6 6 7 6 7 7 6 7 6 6 6 4 4 4 5 5 3 2 3 3 2 2 2 1 1 1 1 1 1 1 3 6 10 7 2 6 7 9 9 9 9 12 12 11 11 12 12 13 12 12 11 12 16 19 24 26 28 29 30 31 32 33 33 35 35 35 36 37 39 41 41 42
10 10 9 8 7 8 9 9 8 8 8 8 7 6 7 8 7 5 6 7 7 7 6 6 5 3 4 6 5 4 2 3 2 2 2 1 1 1 1 0 1 0 1 3 5 6 11 7 7 7 7 8 10 8 11 15 14 13 14 12 10 11 11 12 12 12 20 25 28 27 27 28 29 31 33 33 33 33 34 35 37 38 39 40 40
8 6 9 9 8 8 9 9 10 8 8 8 7 7 7 8 9 7 6 6 7 8 7 7 6 5 5 5 4 3 2 3 2 2 1 1 0 0 0 0 1 1 2 3 4 7 8 10 7 8 8 9 9 12 12 11 13 13 14 13 12 11 12 14 14 11 15 22 26 27 28 28 29 31 32 31 31 32 33 35 36 37 38 39 34
10 8 7 8 8 9 9 9 9 9 9 7 7 7 8 8 8 9 7 6 6 6 7 7 6 5 6 5 4 4 3 3 2 2 1 0 0 0 0 1 1 2 2 3 4 5 7 10 8 8 9 10 9 10 10 10 12 13 12 13 13 12 13 14 15 15 17 25 25 26 28 29 29 28 29 29 30 31 32 34 34 36 38 31 30
10 9 7 5 9 10 9 10 10 9 9 9 8 7 7 6 7 7 7 6 6 6 6 6 6 6 5 5 5 4 3 3 3 2 1 1 1 0 1 1 1 2 2 3 4 4 7 9 11 7 8 8 8 9 10 12 14 13 12 11 12 13 14 14 12 12 19 23 21 23 26 28 28 29 28 28 29 29 31 32 33 35 34 28 31
13 10 10 7 8 10 9 10 10 9 8 8 8 8 8 7 6 6 6 7 6 6 6 6 6 5 5 5 4 4 3 3 3 2 2 1 1 1 0 1 1 2 3 4 4 5 6 8 9 11 8 9 10 8 9 10 13 15 16 15 13 11 15 17 13 11 11 13 14 14 15 19 23 27 28 28 28 28 29 30 31 34 30 28 29
13 11 8 9 7 10 9 9 9 9 8 8 7 7 8 7 7 7 8 7 7 6 6 6 6 5 5 5 4 3 3 3 3 2 2 2 1 0 1 0 2 2 3 4 4 5 6 7 8 8 9 8 8 11 9 10 10 11 14 16 17 16 14 13 16 14 12 13 15 18 17 17 20 18 22 25 26 28 30 29 28 34 27 27 28
11 11 11 10 8 8 9 8 7 7 8 8 8 8 7 7 7 7 8 8 7 7 7 6 6 5 5 5 4 3 3 2 2 2 2 1 1 1 1 0 2 3 3 4 4 5 5 6 7 9 8 10 10 8 8 9 11 11 9 11 15 17 18 17 14 15 13 13 15 15 14 15 17 19 21 22 24 28 29 27 28 33 25 26 28
6 6 8 9 11 9 7 8 8 6 7 7 6 8 8 8 7 8 8 8 8 8 8 7 6 6 5 5 4 4 4 5 6 4 4 2 1 1 1 1 2 3 4 4 4 4 5 6 7 7 8 9 8 10 11 11 12 12 13 12 13 14 14 16 13 9 10 13 13 14 13 12 14 14 14 14 15 22 22 26 23 30 24 27 28
6 5 8 8 8 10 10 8 7 6 5 4 9 13 10 9 8 7 6 7 7 8 8 8 6 6 5 5 5 7 6 5 5 4 4 3 2 2 1 2 2 3 4 4 4 4 5 6 7 8 9 8 9 10 11 12 12 12 12 12 13 14 14 15 14 7 8 11 14 14 13 11 13 14 12 13 13 15 14 15 19 25 23 27 28
7 8 8 10 8 8 9 9 9 6 5 6 12 11 10 11 9 8 8 7 7 7 7 7 7 7 6 6 6 6 6 5 4 3 2 3 3 2 0 2 2 3 3 4 4 4 5 6 7 7 8 11 10 10 11 12 11 11 12 12 12 12 13 14 17 16 8 15 15 15 14 11 12 14 13 12 13 13 14 15 29 30 25 26 27
6 7 9 9 9 8 7 8 8 7 6 10 14 14 13 11 8 8 7 7 6 6 6 6 6 6 6 6 5 3 2 3 3 4 3 2 1 0 1 2 2 3 4 4 4 4 5 6 7 7 8 9 11 10 10 11 12 13 12 11 10 11 12 12 12 13 13 14 14 13 14 11 12 12 12 11 12 11 13 22 30 29 26 26 26
8 8 8 9 8 8 9 10 8 8 7 13 14 15 13 12 10 9 6 6 6 6 6 6 6 6 6 5 5 4 4 4 3 2 2 2 6 5 1 2 3 3 5 6 6 5 5 6 7 8 8 10 11 10 10 12 13 13 13 11 10 10 10 11 11 13 15 13 13 12 13 12 12 13 12 11 11 11 13 19 29 28 28 26 26
7 7 7 9 9 9 8 9 8 8 9 13 15 15 14 13 11 8 7 7 6 6 6 6 5 6 6 6 6 5 5 4 4 3 2 1 0 1 2 2 2 3 4 5 5 7 6 6 7 8 10 9 10 11 12 11 12 12 12 13 13 12 11 11 13 13 13 11 11 12 12 11 11 12 12 12 11 11 10 18 25 27 27 28 26
7 8 8 8 8 7 7 6 8 8 8 15 15 16 15 14 13 8 7 6 6 6 5 5 5 5 5 5 5 5 5 4 4 2 1 1 1 1 1 2 3 3 3 3 3 4 4 5 7 9 10 10 10 11 11 11 10 10 10 12 13 13 12 12 11 10 9 8 9 9 9 13 11 11 11 11 11 11 8 14 22 25 26 25 27
3 4 4 4 7 6 5 6 8 9 9 16 16 16 16 15 13 7 7 7 6 6 6 6 5 5 4 5 5 5 5 4 5 3 0 1 1 1 2 2 3 4 4 4 6 7 7 7 7 8 9 10 13 12 11 11 10 9 10 10 10 9 11 10 10 9 9 8 9 7 8 11 10 10 11 11 10 8 8 9 17 23 24 23 24
6 6 5 6 6 7 9 7 7 8 10 14 16 17 17 17 11 6 6 5 5 6 6 6 5 5 4 5 5 5 5 4 4 2 1 0 1 2 2 3 3 4 5 4 5 7 8 10 12 13 14 15 14 15 15 15 11 10 9 9 8 9 10 10 10 8 10 10 7 5 8 10 10 10 11 10 10 6 7 10 11 17 22 22 22
7 6 6 6 5 5 9 7 9 11 9 14 17 17 17 16 9 7 6 6 6 6 5 5 4 4 5 7 6 5 5 4 5 2 2 2 2 2 3 4 4 4 4 3 3 5 8 10 11 12 12 12 12 12 13 12 12 10 7 8 9 8 9 8 10 10 10 9 4 7 9 8 10 9 10 10 9 1 5 7 10 12 16 15 20
5 5 5 6 6 5 5 8 11 10 9 13 16 17 17 15 10 6 6 6 6 6 6 5 5 4 5 6 7 6 5 4 4 3 3 3 3 3 4 4 5 5 4 3 5 6 6 6 6 6 6 7 7 7 7 11 11 9 6 7 7 7 8 8 9 10 9 4 4 9 9 9 9 9 7 9 5 4 4 7 9 9 9 9 10
Wind_Direction
179 163 168 183 155 211 236 225 238 167 209 217 274 288 305 351 356 351 348 338 330 326 335 327 322 332 335 338 336 340 335 328 333 334 331 328 340 36 27 354 345 347 351 352 354 359 358 359 358 357 355 353 353 350 349 348 344 342 342 341 340 342 345 345 344 345 344 342 341 339 337 334 331 329 326 324 321 317 308 303 302 300 295 294 293
163 160 180 162 175 193 221 220 239 200 238 254 240 293 325 326 331 320 320 320 319 332 325 318 321 328 336 340 341 339 333 329 333 337 335 340 350 1 49 356 354 355 355 354 358 1 2 2 2 360 356 355 354 351 351 348 345 343 344 342 346 350 348 349 349 349 347 348 349 345 343 342 342 340 338 334 331 327 323 322 320 312 305 298 296
171 169 178 173 181 195 207 195 225 204 234 270 243 286 309 315 327 320 318 315 312 318 311 314 320 328 343 338 336 331 332 332 336 339 343 356 355 3 2 36 4 359 354 358 2 3 3 4 6 4 2 1 358 357 353 349 347 347 349 352 356 358 356 351 354 354 353 351 351 351 351 349 348 346 342 339 336 334 331 329 326 322 319 315 310
193 181 196 183 187 195 202 215 232 206 227 279 279 259 297 305 279 279 286 304 306 308 315 311 318 326 336 330 330 328 330 336 335 350 353 355 7 6 3 4 78 19 360 3 7 9 5 6 8 7 5 5 2 359 357 353 350 354 359 358 0 359 352 355 358 358 355 353 353 355 356 354 350 347 345 342 339 336 333 330 328 326 324 322 316
187 192 194 201 194 206 202 196 227 280 280 241 250 243 250 258 289 249 289 304 306 308 309 307 317 325 326 320 316 321 327 330 351 356 6 7 10 7 1 9 8 102 79 15 21 20 11 10 10 8 8 7 4 1 1 359 0 1 1 2 360 357 359 3 0 359 356 356 357 356 354 352 349 346 343 339 336 334 332 331 330 329 327 325 323
200 189 200 196 195 200 216 221 211 214 265 250 255 273 281 282 297 304 313 311 313 312 318 323 323 322 320 325 312 324 331 346 1 16 7 12 7 9 12 13 10 10 2 95 72 37 17 11 11 10 10 9 6 6 5 4 3 4 5 4 4 3 6 3 1 359 359 359 357 355 352 349 346 342 339 336 335 332 330 329 327 326 325 323 322
204 199 197 202 214 234 245 253 259 276 287 278 268 269 273 288 306 309 314 312 319 331 333 328 325 326 327 324 324 331 329 352 11 27 12 358 10 19 19 20 12 8 1 6 53 64 25 12 8 10 12 10 8 8 9 8 8 8 10 7 6 7 6 4 2 0 359 359 356 353 351 348 344 341 338 335 332 330 328 326 324 323 321 319 317
201 212 210 223 246 243 245 227 199 247 287 279 246 256 270 288 298 307 319 325 332 326 323 323 324 322 322 322 322 329 338 2 22 33 4 1 28 29 22 22 16 6 359 8 3 30 49 12 3 9 15 9 7 10 12 11 10 11 10 8 7 7 6 3 1 359 358 357 353 351 349 346 343 339 336 332 329 326 325 323 322 320 318 316 315
202 203 225 221 233 240 245 216 216 261 272 256 251 254 283 285 298 301 304 316 319 317 318 334 326 322 320 319 323 329 345 22 41 20 9 29 38 25 21 23 16 3 10 6 3 360 33 30 350 360 27 12 10 12 14 14 12 11 11 9 7 5 3 1 359 356 356 354 351 349 347 343 339 334 331 328 326 324 322 321 319 317 315 314 312
198 206 221 226 229 239 232 222 222 257 248 247 251 272 281 287 295 292 300 305 314 338 331 320 316 319 322 319 322 330 3 45 75 17 32 46 33 19 20 22 18 10 10 3 4 6 1 8 8 25 65 21 14 14 15 16 13 11 11 9 5 2 360 358 357 356 355 352 350 347 341 337 333 330 328 326 324 323 321 320 318 316 314 313 311
193 192 221 219 221 228 233 225 234 254 252 248 249 243 268 267 281 290 261 295 315 323 285 306 312 315 314 318 326 342 34 83 111 30 48 55 22 16 26 22 16 13 6 1 7 3 6 3 6 7 27 30 16 17 16 17 14 10 10 7 3 359 358 357 356 355 353 350 346 340 336 333 331 328 326 324 323 321 320 318 317 314 313 311 309
198 199 206 226 232 234 232 227 233 248 239 248 247 229 244 252 264 292 305 313 153 290 290 303 309 306 312 319 334 352 84 131 122 31 51 65 24 23 26 22 17 8 3 357 5 4 6 6 9 10 9 14 20 17 14 17 17 11 10 6 0 358 357 355 353 352 349 344 340 337 335 332 330 328 326 324 322 321 319 318 315 314 313 311 310
204 198 206 226 233 234 230 232 236 237 242 249 264 272 276 286 296 296 269 261 150 237 270 302 309 321 327 286 315 80 81 153 150 27 56 75 26 23 24 20 16 3 355 350 357 6 4 8 10 11 10 7 10 14 13 17 27 9 10 8 0 358 356 353 350 347 343 341 339 336 334 332 330 328 325 324 322 320 319 317 316 314 313 311 311
202 208 208 226 228 230 226 229 230 231 238 257 263 260 244 233 227 211 220 235 206 342 9 307 305 326 320 326 170 136 78 163 141 25 63 81 30 33 16 18 13 356 347 346 -0 4 7 9 9 9 11 8 8 5 7 13 19 4 9 10 1 358 355 350 345 343 341 340 338 337 335 332 330 327 325 323 322 321 320 319 318 317 315 314 312
204 210 216 212 223 219 223 229 220 204 222 241 239 227 223 212 201 204 157 208 154 25 354 355 315 310 251 248 117 199 159 165 194 63 90 78 50 41 17 5 6 357 345 347 357 2 6 7 4 7 7 4 2 1 5 10 12 343 10 15 2 357 351 346 342 340 341 340 339 337 334 332 329 327 326 325 325 324 323 322 321 319 317 315 313
202 203 212 211 211 224 228 231 236 221 228 243 227 234 219 198 187 188 181 182 211 172 15 354 331 323 252 356 37 287 172 125 6 125 133 81 78 55 31 10 1 0 352 353 350 351 356 4 1 4 1 357 354 357 0 9 5 7 27 24 358 354 348 343 342 343 343 342 340 337 334 332 330 329 328 328 327 326 325 324 321 320 318 315 314
212 209 211 209 205 223 239 240 240 234 231 233 233 223 204 189 175 166 192 251 243 215 97 19 10 341 328 268 193 198 53 359 326 150 164 107 104 53 70 25 360 358 356 346 338 346 349 355 360 356 354 352 356 354 360 13 6 5 10 11 356 354 350 347 346 345 344 342 339 336 333 332 331 331 330 328 327 325 324 322 321 318 317 315 313
218 223 217 216 224 231 231 235 235 227 212 210 181 165 167 165 173 175 188 245 297 218 180 93 64 24 21 31 6 357 0 16 309 65 14 103 32 45 55 32 1 348 353 344 338 341 358 350 350 351 345 346 350 357 7 15 10 6 7 356 355 355 352 349 346 344 342 339 336 334 333 332 331 329 328 327 326 325 323 322 320 318 316 314 312
213 217 222 224 226 221 220 220 215 205 180 166 161 164 160 159 166 197 185 153 188 235 211 162 120 93 45 18 19 14 347 301 8 313 336 81 39 12 5 9 359 346 352 350 342 340 351 350 347 351 353 359 360 6 6 7 11 8 6 358 356 354 350 346 344 341 339 336 334 332 331 330 329 328 327 326 325 324 322 319 316 314 313 312 311
211 210 216 213 207 196 186 181 169 164 157 162 157 158 153 148 174 158 145 162 216 222 202 186 222 148 181 172 138 193 219 253 357 347 310 301 316 0 149 354 344 346 349 346 341 339 342 347 351 351 352 354 358 4 1 4 4 2 1 356 352 349 344 342 340 337 334 331 329 328 327 326 326 326 325 324 323 321 318 314 313 311 310 309 307
210 196 187 199 189 182 168 159 150 144 154 153 152 165 172 169 174 185 221 208 203 197 181 192 215 152 153 151 166 149 133 127 113 10 257 278 290 320 321 327 296 205 352 327 327 323 328 334 342 342 342 344 354 360 1 4 1 358 359 352 348 341 338 338 336 332 329 326 324 323 324 325 325 325 323 322 319 316 314 313 311 311 309 308 307
178 181 182 189 184 173 168 164 151 149 152 138 139 143 145 144 178 208 207 186 174 180 186 159 134 105 185 156 159 146 155 158 178 207 220 228 281 304 326 329 334 332 302 338 313 303 308 312 319 330 330 340 352 349 4 359 355 352 353 347 339 335 333 333 331 328 325 323 321 322 323 324 324 323 322 320 317 316 314 313 311 309 308 306 305
167 176 176 179 170 161 160 150 137 141 144 149 163 158 129 136 130 138 164 168 167 142 135 136 134 137 157 178 166 184 162 172 162 190 230 224 270 288 315 317 305 308 337 307 296 294 289 282 296 322 334 342 351 350 354 349 344 -0 350 339 334 329 328 328 327 325 322 320 321 323 325 325 325 323 321 318 317 315 313 311 310 309 308 307 306
178 160 137 153 154 133 117 124 131 139 147 153 134 139 164 167 155 152 145 143 142 149 148 146 148 136 144 139 124 111 100 108 134 211 229 310 285 297 315 324 289 264 292 305 263 265 286 287 331 329 347 335 0 352 343 339 338 356 342 334 327 323 324 325 324 322 320 320 322 324 325 325 323 320 319 317 316 315 314 315 313 312 310 309 307
174 159 158 164 167 147 147 147 154 162 153 173 176 173 172 163 154 150 149 152 157 156 144 138 144 143 137 120 115 111 105 110 186 186 205 270 268 310 321 296 295 303 305 294 319 279 231 313 336 326 355 358 346 337 341 338 330 334 340 327 320 316 319 320 319 318 316 317 321 324 325 323 321 320 318 317 317 319 318 317 315 313 312 311 308
177 170 165 170 179 171 157 145 138 143 158 167 171 163 151 159 157 156 148 136 126 122 114 119 120 128 139 133 116 112 121 147 151 169 106 302 336 341 318 299 257 285 304 288 268 329 154 312 334 333 16 2 348 344 339 330 325 326 337 320 313 315 314 315 315 313 313 316 324 327 326 325 323 321 320 320 321 320 319 317 315 314 313 312 312
183 161 145 165 167 157 150 145 144 142 155 153 145 146 147 149 146 143 129 124 120 117 122 133 137 142 129 120 123 122 131 138 139 101 107 16 0 1 342 339 334 295 313 303 287 265 287 310 282 301 305 356 346 336 329 326 311 320 324 314 311 308 307 311 314 314 315 322 326 328 329 328 324 322 322 323 323 322 319 317 317 316 315 316 314
164 145 146 148 163 155 159 149 139 139 149 150 147 143 149 142 133 131 122 122 127 122 125 131 130 130 121 122 126 125 132 135 121 103 105 36 13 27 336 341 342 329 330 325 319 324 95 326 303 199 251 343 335 325 317 307 311 323 312 315 312 311 314 315 314 314 316 323 329 332 332 329 326 326 327 327 325 322 321 320 319 319 318 317 314
145 155 150 155 157 167 155 139 150 159 146 149 147 140 142 138 133 129 127 130 122 124 129 134 131 130 122 133 127 131 130 128 128 136 138 159 143 27 337 336 320 310 330 323 331 329 326 28 339 287 160 341 329 325 317 314 314 319 316 313 312 311 316 315 312 313 318 329 334 336 334 330 328 330 330 328 325 324 322 322 321 320 319 315 314
145 152 150 148 162 175 145 143 157 157 148 143 142 140 140 128 124 120 119 124 117 119 127 131 131 123 126 130 133 126 131 132 118 129 140 132 150 151 153 241 279 302 311 312 308 307 306 326 317 309 321 326 327 318 309 307 312 315 317 313 314 319 317 308 311 318 324 334 339 337 333 330 330 332 331 328 327 325 324 323 322 320 318 317 315
148 146 148 136 150 168 140 128 143 143 137 141 142 144 141 127 122 118 123 128 130 132 132 127 126 132 136 133 130 122 127 128 135 138 145 166 142 170 175 197 237 250 285 275 301 294 9 315 318 323 320 323 322 313 312 313 317 314 318 321 319 320 309 317 326 326 327 336 338 336 331 331 333 334 331 330 328 326 325 324 323 322 322 320 318
159 159 145 143 155 156 132 128 134 135 137 136 146 141 136 127 127 130 137 136 133 134 132 126 131 139 139 132 128 128 138 142 137 129 126 109 139 169 185 211 201 240 265 263 265 278 310 302 308 317 322 321 321 319 320 321 319 321 330 324 323 318 321 326 327 329 330 336 338 335 334 335 336 334 331 330 329 327 327 327 326 325 323 321 320
163 155 149 146 152 146 134 138 143 145 144 144 148 149 134 130 124 130 140 141 137 132 129 129 132 136 132 120 114 113 134 144 131 140 130 134 165 178 173 225 230 200 269 277 279 290 296 295 309 314 321 321 320 328 325 325 325 328 328 327 327 329 326 329 330 330 335 337 337 336 336 337 338 335 332 330 329 329 329 330 330 328 327 325 324
169 149 152 150 142 139 136 142 143 144 148 149 154 149 139 132 131 137 149 149 137 132 135 140 141 131 126 119 119 123 126 121 128 135 137 159 183 178 187 225 306 302 308 296 288 290 299 316 316 320 317 331 317 333 332 327 327 330 330 330 330 331 329 329 332 334 338 337 336 337 337 338 337 333 330 330 332 333 334 334 334 333 331 332 330
172 160 146 147 146 136 134 143 144 149 151 152 157 147 141 140 144 152 156 151 142 142 144 145 142 134 123 121 130 138 151 141 131 118 130 148 172 151 20 328 323 322 305 302 300 299 306 308 313 318 329 330 327 327 330 324 321 326 325 330 333 335 335 333 332 330 335 336 335 337 338 338 335 332 331 333 336 337 337 338 336 335 333 333 335
161 159 138 136 136 138 139 144 148 151 151 151 152 147 143 146 148 151 154 146 140 142 140 143 142 135 130 130 143 155 155 135 136 137 131 132 193 117 46 350 299 310 310 288 287 289 302 305 314 324 324 325 325 326 323 322 326 327 328 326 329 332 335 336 333 333 334 336 339 340 338 334 332 333 333 334 338 339 339 339 340 337 338 345 11
154 146 150 133 137 143 149 154 153 156 155 153 147 142 141 143 144 144 143 135 133 132 134 132 129 126 131 134 143 149 152 143 155 163 137 169 141 112 4 335 317 315 289 288 291 294 298 299 305 314 318 317 319 323 333 335 331 328 328 329 331 329 331 334 333 331 327 331 341 343 335 333 335 336 335 336 339 340 341 340 341 340 336 -0 13
153 151 155 161 148 150 151 151 151 150 147 149 145 145 146 142 137 133 128 128 128 127 125 121 123 125 133 133 136 142 157 166 154 149 156 141 122 96 35 349 327 301 298 298 297 301 298 297 306 313 326 328 325 327 340 341 333 331 330 330 328 331 335 334 333 334 338 334 339 339 335 334 335 333 334 336 338 340 340 339 341 341 342 11 11
153 149 154 152 152 146 146 142 147 145 145 144 141 143 143 141 139 134 132 128 128 125 121 120 120 124 126 127 129 138 147 150 153 151 145 152 134 131 114 343 305 312 306 311 308 308 307 309 310 313 316 321 323 321 336 337 332 335 333 333 330 331 332 333 331 334 339 335 336 335 336 331 332 335 335 336 339 341 341 339 339 343 338 13 13
157 151 155 151 139 136 139 139 139 140 141 143 145 145 143 142 138 137 137 136 133 127 122 122 125 123 122 123 126 129 135 143 144 129 134 145 162 178 121 353 325 326 318 316 315 317 318 320 319 318 320 318 320 319 324 333 334 334 344 332 323 325 326 329 334 332 333 342 340 335 337 337 338 339 338 338 342 342 341 340 340 341 339 15 14
156 108 117 132 135 133 129 134 142 145 150 154 154 153 144 142 140 139 140 139 139 134 130 128 127 126 126 122 128 121 97 84 70 70 70 43 222 139 22 13 341 332 326 318 314 318 322 321 314 316 315 317 318 325 332 337 337 332 330 330 319 319 320 319 326 333 333 340 339 330 332 340 338 338 337 337 341 341 339 339 341 341 353 18 16
149 134 123 126 137 140 141 143 147 149 151 141 158 154 150 145 144 139 136 140 140 139 137 135 132 130 130 124 110 109 115 101 95 102 111 100 63 28 14 340 336 330 312 311 312 320 319 312 313 317 315 315 320 326 322 322 325 326 326 329 324 324 324 323 316 338 344 348 339 334 329 340 339 333 339 338 339 342 338 340 345 341 8 16 18
144 148 138 139 145 143 142 146 150 149 142 149 155 149 142 143 141 141 143 140 141 140 142 144 143 141 138 138 138 140 135 134 119 113 126 136 126 111 38 343 331 315 302 300 303 308 307 304 304 307 305 309 313 320 318 322 326 328 325 324 321 325 331 332 326 323 350 348 339 333 325 338 339 337 335 335 339 340 338 338 343 347 11 16 18
146 142 146 148 147 146 138 139 144 147 144 153 155 149 150 147 140 140 138 139 143 142 142 141 140 145 149 150 145 141 133 126 148 154 160 195 196 170 312 306 297 293 289 284 291 297 299 298 298 298 304 306 313 316 320 327 325 323 321 320 322 327 325 323 318 316 321 337 332 329 320 328 335 337 331 331 337 336 331 340 347 349 5 18 19
142 150 151 146 148 147 146 147 146 145 143 160 153 149 148 149 142 135 133 138 139 143 142 140 145 149 151 150 146 146 134 158 179 172 181 188 196 218 270 244 258 272 281 284 286 288 289 287 290 294 299 309 310 314 323 321 319 314 319 319 324 323 317 310 311 313 315 331 327 327 320 324 337 336 331 330 337 336 336 342 352 353 5 18 19
156 149 149 152 150 153 151 143 141 146 147 157 148 149 150 149 143 129 128 132 133 136 138 141 147 150 157 157 154 156 157 167 163 176 176 191 228 256 261 303 295 278 270 271 274 274 276 277 285 289 298 306 305 310 315 316 315 317 320 317 321 317 313 307 308 303 307 327 331 326 313 322 338 333 329 330 335 339 341 343 356 1 3 9 21
161 161 157 155 153 146 142 141 139 142 146 151 150 150 150 148 142 127 127 128 128 130 134 141 144 147 151 150 150 151 157 165 156 153 174 239 276 266 302 296 294 288 292 283 294 301 288 285 287 293 300 304 304 306 307 311 312 316 317 310 311 306 306 307 300 303 309 327 333 324 314 318 330 329 324 327 331 336 348 336 354 2 5 8 13
139 129 140 136 147 141 137 136 135 138 148 155 153 153 152 150 140 128 136 136 135 136 138 145 149 147 150 152 152 158 163 158 157 187 229 308 242 229 272 279 279 287 282 283 281 278 278 285 291 296 299 299 300 300 304 310 315 314 312 307 302 309 315 312 312 319 316 330 329 322 318 312 322 326 318 323 327 331 348 349 347 358 3 9 13
155 161 147 149 148 146 154 155 143 141 152 160 157 157 155 150 143 135 137 134 135 140 147 148 148 150 156 163 164 165 167 159 167 201 130 291 181 216 255 264 273 279 278 274 273 276 281 289 294 296 297 297 298 301 305 311 312 315 314 310 314 325 315 314 314 321 318 326 318 349 325 308 324 324 317 321 317 321 4 1 352 354 1 6 11
158 153 147 139 148 156 160 162 163 154 156 162 161 159 157 157 145 141 146 141 140 144 145 150 149 157 162 172 175 172 168 161 179 193 170 170 183 215 241 257 266 268 272 269 281 281 287 293 298 297 295 294 299 304 306 307 311 315 314 312 318 319 309 309 309 317 313 311 333 8 325 312 319 322 319 320 306 10 28 10 1 348 354 355 360
130 136 140 144 147 163 177 159 162 156 151 161 163 162 160 158 149 145 146 144 145 154 153 155 162 164 168 179 191 189 175 170 184 186 187 188 193 216 229 243 251 257 262 284 285 290 295 304 304 305 300 300 304 303 300 301 304 307 311 312 314 314 308 307 308 313 315 316 -0 356 327 317 320 316 335 330 332 327 27 22 6 352 353 348 357